Regional Weather Roundup
Issued by NWS

Home | Current Version | Previous Version | Graphics & Text | Print | Product List | Glossary On
Versions: 1 2 3 4 5 6 7 8 9 10 11 12 13 14 15 16 17 18 19 20 21 22 23 24 25 26 27 28 29 30 31 32 33 34 35 36 37 38 39 40 41 42 43 44 45 46 47 48 49 50
000
ASUS43 KDMX 120206
RWRIA

WEATHER ROUNDUP FOR IOWA
NATIONAL WEATHER SERVICE DES MOINES IA
800 PM CST MON DEC 11 2017

NOTE: "FAIR" INDICATES FEW OR NO CLOUDS BELOW 12,000 FEET WITH NO
SIGNIFICANT WEATHER AND/OR OBSTRUCTIONS TO VISIBILITY.

* - THESE STATIONS ARE NOT NWS STATIONS...THUS NOT UNDER NWS
QUALITY CONTROL.  THEY ALSO DO NOT REPORT WEATHER SUCH
AS PRECIPITATION OR FOG.

IAZ001>003-012>014-020>022-031>034-043>046-120300-
   NORTHWEST IOWA

CITY           SKY/WX    TMP DP  RH WIND       PRES   REMARKS
CARROLL *      PTCLDY    27  19  74 N17       30.20R WCI  14
CHEROKEE *     CLEAR     25  20  83 N13G20    30.24R WCI  13
DENISON *      CLEAR     28  21  74 N18G28    30.24R WCI  16
LE MARS *      PTCLDY    27  21  80 N14G20    30.27R WCI  15
ORANGE CITY *  CLEAR     27  21  80 N15G21    30.25R WCI  15
SHELDON *      CLEAR     21  16  79 N28       30.23R WCI   3
SIOUX CITY     CLEAR     29  21  72 N20       30.28R WCI  16
SPENCER        CLEAR     21  13  71 N24G31    30.23R WCI   4
STORM LAKE *   CLEAR     23  18  80 N21G28    30.20R WCI   8
$$

IAZ055>058-069>071-079>083-090>094-120300-
   SOUTHWEST IOWA

CITY           SKY/WX    TMP DP  RH WIND       PRES   REMARKS
ATLANTIC *     CLOUDY    32  23  69 N13       30.20R WCI  22
AUDUBON *      CLOUDY    30  21  69 NW14G26   30.20R WCI  20
CLARINDA *     MOCLDY    34  25  69 N15G22      N/A  WCI  24
COUNCIL BLFS * PTCLDY    34  27  75 NW21G31   30.22R WCI  22
CRESTON *      CLOUDY    30  21  69 NW23G31   30.17R WCI  17
HARLAN  *      PTCLDY    30  23  74 N21G28    30.24R WCI  17
LAMONI         CLOUDY    34  25  69 NW21G32   30.12R WCI  22
RED OAK *      CLEAR     32  25  74 N10       30.21R WCI  24
SHENANDOAH *   MOCLDY    37  25  60 NW23G33   30.23R WCI  26
$$

IAZ047>049-059>061-072>074-084-120300-
   CENTRAL IOWA

CITY           SKY/WX    TMP DP  RH WIND       PRES   REMARKS
AMES           CLOUDY    30  22  72 NW28G40   30.14R WCI  15
ANKENY *       CLOUDY    32  21  64 NW23G38   30.15R WCI  19
BOONE *        CLOUDY    28  19  69 N26G37    30.15R WCI  13
CHARITON *     MIX PCPN  34  27  75 NW23G33   30.09R WCI  22
DES MOINES     CLOUDY    32  22  66 NW26G35   30.14R WCI  18
GRINNELL*      CLOUDY    33  28  81 NW18G29   30.06R WCI  22
KNOXVILLE *    CLOUDY    34  27  75 NW23G33   30.08R WCI  22
MARSHALLTOWN   CLOUDY    32  26  78 NW20      30.07R WCI  20
NEWTON *       CLOUDY    34  25  69 NW25G33   30.08R WCI  21
PELLA *        CLOUDY    35  28  74 NW24G35   30.09R WCI  23
PERRY *        CLOUDY    28  19  68 N23G30    30.19R WCI  13
$$

IAZ004>006-015-016-023>025-035-036-120300-
   NORTH CENTRAL IOWA

CITY           SKY/WX    TMP DP  RH WIND       PRES   REMARKS
ALGONA *       CLOUDY    23  18  80 NW26G39   30.18R WCI   6
CLARION *      CLOUDY    27  21  80 NW26G40   30.15R WCI  11
ESTHERVILLE    PTCLDY    18  14  84 N24G36    30.20R WCI   0
FORT DODGE *   CLOUDY    24  17  74 N14G24    30.19R WCI  12
MASON CITY     CLOUDY    28  19  69 NW25G32   30.12R WCI  13
FOREST CITY *  CLOUDY    28  21  74 NW22G29   30.13R WCI  15
WEBSTER CITY * CLOUDY    27  18  69 NW30G40   30.14R WCI  10
IOWA FALLS *   CLOUDY    30  24  77 NW28      30.12R WCI  15
$$

IAZ007>011-017>019-026>030-037>042-050>054-066-120300-
   NORTHEAST IOWA

CITY           SKY/WX    TMP DP  RH WIND       PRES   REMARKS
CEDAR RAPIDS   CLOUDY    34  30  85 NW14G25   29.99R WCI  25
CHARLES CITY * CLOUDY    30  23  74 NW25G32   30.07R WCI  16
DECORAH *      CLOUDY    30  21  69 N24G41    30.00R WCI  16
DUBUQUE        CLOUDY    31  26  82 N25G32    29.92R WCI  17
MONTICELLO *   CLOUDY    34  27  75 NW23G32   29.96R WCI  22
OELWEIN *      CLOUDY    32  25  74 NW30G37   30.02R WCI  18
WATERLOO       CLOUDY    32  22  66 NW29G39   30.04R WCI  18
$$

IAZ064-065-067-068-078-120300-
   EAST CENTRAL IOWA

CITY           SKY/WX    TMP DP  RH WIND       PRES   REMARKS
DAVENPORT      CLOUDY    35  31  85 NW18      29.95R WCI  24
IOWA CITY      CLOUDY    37  28  70 N20G33    30.01R WCI  27
MT. PLEASANT * CLOUDY    37  31  78 NW20G30   29.99R WCI  26
MUSCATINE *    CLOUDY    37  30  75 NW16G29   29.98R WCI  28
QUAD CITIES    CLOUDY    37  33  85 NW15G26   29.92R WCI  28
$$

IAZ062-063-075>077-085>089-095>099-120300-
   SOUTHEAST IOWA

CITY           SKY/WX    TMP DP  RH WIND       PRES   REMARKS
BURLINGTON     CLOUDY    38  34  85 NW14G28   29.96R WCI  30
FAIRFIELD *    CLOUDY    37  30  75 NW25      30.00R WCI  26
FORT MADISON * CLOUDY    37  34  87 NW23G31   29.98R WCI  26
KEOKUK *       CLOUDY    39  34  81 NW15G29   29.99R WCI  31
OSKALOOSA *    CLOUDY    35  28  77 NW23G30   30.05R WCI  23
OTTUMWA        CLOUDY    37  28  70 NW25G35   30.04R WCI  25
WASHINGTON *   CLOUDY    37  34  87 NW20G25   30.01R WCI  27
$$

ABBREVIATIONS USED IN REMARKS
   TC - TEMPERATURES IN CELSIUS
  WCI - WIND CHILL INDEX
   HX - HEAT INDEX
  VSB - VISIBILITY
$$





USA.gov is the U.S. government's official web portal to all federal, state and local government web resources and services.